Home   Weather   Ajax   Past weeks

Flag for Canada Past Weather in Ajax, Ontario, Canada — Yesterday and Last 2 Weeks

Now
27 °F

Partly sunny.


Feels Like: 20 °F
Forecast: 25 / 36 °F
Wind: 6 mph from Southwest

Location: Toronto Buttonville

Current Time: Jan 16, 2017 at 10:31:28 am

Latest Report: Jan 16, 2017 at 9:00 am


Visibility: 10 mi

Pressure: 30.36 "Hg

Humidity: 74%

Dew Point: 19 °F

Location of AjaxLocation

Past Weather in Ajax — Graph

°F

Ajax Temperature Yesterday

Maximum temperature yesterday: 30 °F (at 1:00 pm)
Minimum temperature yesterday: 19 °F (at 12:00 am)
Average temperature yesterday: 27 °F

High & Low Weather Summary for the Past Weeks

 TemperatureHumidityPressure
High46 °F (Jan 12, 3:00 am)100% (Jan 2, 11:00 pm)30.81 "Hg (Jan 2, 11:00 pm)
Low7 °F (Jan 7, 5:00 am)49% (Jan 5, 3:23 pm)29.41 "Hg (Jan 4, 5:00 am)
Average26 °F77%30.10 "Hg
* Reported Jan 1 9:00 am — Jan 16 9:00 am, Ajax, Weather by CustomWeather, © 2017

Note: Actual official high and low records may vary slightly from our data, if they occured in-between our weather recording intervals... More about our weather records

Advertising

Ajax Weather History for the Previous 24 Hours

Scroll right to see more
 ConditionsComfort  
Time TempWeatherWind HumidityBarometerVisibility
9:00 am
Mon, Jan 16
27 °FPartly sunny.6 mph74%30.36 "Hg10 mi
8:00 am23 °FPartly sunny.3 mph86%30.35 "Hg8 mi
7:00 am23 °FClear.3 mph86%30.35 "Hg8 mi
6:00 am23 °FClear.3 mph86%30.35 "Hg8 mi
5:00 am23 °FClear.No wind86%30.34 "Hg10 mi
4:00 am23 °FClear.2 mph86%30.36 "Hg10 mi
3:00 am23 °FClear.5 mph86%30.36 "Hg10 mi
2:00 am23 °FClear.No wind86%30.36 "Hg10 mi
1:00 am25 °FClear.2 mph80%30.36 "Hg10 mi
12:00 am25 °FClear.5 mph80%30.37 "Hg12 mi
11:00 pm
Sun, Jan 15
27 °FClear.5 mph74%30.37 "Hg15 mi
10:00 pm27 °FPassing clouds.5 mph69%30.37 "Hg15 mi
9:00 pm27 °FPassing clouds.2 mph69%30.38 "Hg15 mi
8:00 pm28 °FPassing clouds.3 mph64%30.38 "Hg15 mi
7:00 pm30 °FPassing clouds.5 mph64%30.38 "Hg15 mi
6:00 pm30 °FPassing clouds.5 mph59%30.39 "Hg15 mi
5:00 pm30 °FPartly sunny.8 mph59%30.38 "Hg15 mi
4:00 pm30 °FPartly sunny.8 mph59%30.38 "Hg15 mi
3:00 pm30 °FPartly sunny.3 mph59%30.40 "Hg15 mi
2:00 pm30 °FPartly sunny.2 mph59%30.39 "Hg15 mi
1:00 pm30 °FPartly sunny.8 mph59%30.40 "Hg15 mi
12:00 pm28 °FPartly sunny.3 mph64%30.42 "Hg15 mi
11:00 am28 °FPartly sunny.3 mph69%30.43 "Hg15 mi
10:00 am28 °FOvercast.3 mph74%30.44 "Hg15 mi
Weather by CustomWeather, © 2017

See weather overviewHow to use our weather pages